Orbital Elements at Epoch 2459000.5 (2020-May-31.0) TDB
Reference: JPL 18 (heliocentric ecliptic J2000)
Element | Value | Uncertainty (1-sigma) | Units |
e | .1042767623049514 | 3.501e-08 | |
a | 2.275737110532196 | 9.2424e-09 | au |
q | 2.038430612788674 | 7.8891e-08 | au |
i | 6.334823997010373 | 4.6452e-06 | deg |
node | 5.881842421746303 | 3.4688e-05 | deg |
peri | 79.16034916559543 | 4.1417e-05 | deg |
M | 44.981208085133 | 2.2762e-05 | deg |
tp | 2458843.821220835140 (2019-Dec-26.32122084) | 7.9002e-05 | TDB |
period | 1253.953882087755 3.43 | 7.639e-06 2.091e-08 | d yr |
n | .2870918979895994 | 1.7489e-09 | deg/d |
Q | 2.513043608275719 | 1.0206e-08 | au |
|
| | Orbit Determination Parameters
Additional Information
|